EW1689 Weather Reports


Display with metric or nautical units.
time (UTC)temp
F
wind
direction
speed
MPH
gust
MPH
rain 1hr
in
rain 24hr
in
rain mn
in
humidity
%
barometer
mb
20260902210536 97 0 2.0 5.0 0.00 0.00 0.00 29 1013.6
20260902205516 97 0 3.0 9.0 0.00 0.00 0.00 30 1013.9
20260902204516 96 0 3.0 8.0 0.00 0.00 0.00 31 1013.8
20260902203536 97 0 5.0 9.0 0.00 0.00 0.00 30 1014.3
20260902202516 97 0 5.0 9.0 0.00 0.00 0.00 30 1014.4
20260902201539 97 0 3.0 7.0 0.00 0.00 0.00 29 1014.4
20260902200516 96 0 3.0 8.0 0.00 0.00 0.00 31 1014.5
20260902195516 96 0 6.0 11.0 0.00 0.00 0.00 31 1014.7
20260902194516 97 0 4.0 12.0 0.00 0.00 0.00 30 1014.9
20260902193516 97 0 3.0 8.0 0.00 0.00 0.00 31 1015.2
20260902192536 96 0 2.0 5.0 0.00 0.00 0.00 33 1015.1
20260902191536 96 0 2.0 8.0 0.00 0.00 0.00 32 1015.3
20260902190516 95 0 4.0 7.0 0.00 0.00 0.00 31 1015.5
20260902185516 95 0 4.0 9.0 0.00 0.00 0.00 32 1015.5
20260902184536 94 0 3.0 7.0 0.00 0.00 0.00 34 1015.6
20260902183556 94 0 5.0 10.0 0.00 0.00 0.00 35 1015.7
20260902182516 94 0 4.0 9.0 0.00 0.00 0.00 39 1016.0
20260902181516 94 0 3.0 5.0 0.00 0.00 0.00 39 1016.1
20260902180516 93 0 3.0 7.0 0.00 0.00 0.00 41 1016.2
20260902175515 93 0 2.0 4.0 0.00 0.00 0.00 42 1016.2
20260902174515 92 0 2.0 5.0 0.00 0.00 0.00 43 1016.2
20260902173515 92 0 3.0 5.0 0.00 0.00 0.00 44 1016.3
20260902172515 91 0 2.0 7.0 0.00 0.00 0.00 45 1016.3
20260902171516 92 0 3.0 7.0 0.00 0.00 0.00 45 1016.4
20260902170515 91 0 3.0 9.0 0.00 0.00 0.00 44 1016.2
20260902165536 91 0 2.0 4.0 0.00 0.00 0.00 46 1016.3
20260902164515 90 0 1.0 3.0 0.00 0.00 0.00 47 1016.3
20260902163516 90 0 3.0 6.0 0.00 0.00 0.00 47 1016.2
20260902162515 89 0 2.0 6.0 0.00 0.00 0.00 49 1016.3
20260902161515 89 0 3.0 5.0 0.00 0.00 0.00 50 1016.3
20260902160536 88 0 2.0 5.0 0.00 0.00 0.00 50 1016.2
20260902155517 87 0 3.0 6.0 0.00 0.00 0.00 52 1016.1
20260902154518 87 0 4.0 8.0 0.00 0.00 0.00 52 1016.0
20260902153517 87 0 3.0 6.0 0.00 0.00 0.00 52 1016.1
20260902152537 87 0 1.0 5.0 0.00 0.00 0.00 52 1016.0
20260902151517 87 0 1.0 4.0 0.00 0.00 0.00 52 1016.1
20260902150517 86 0 1.0 2.0 0.00 0.00 0.00 54 1016.1
20260902145517 85 0 1.0 3.0 0.00 0.00 0.00 54 1015.9
20260902144537 84 0 1.0 3.0 0.00 0.00 0.00 56 1015.8
20260902143517 84 0 1.0 2.0 0.00 0.00 0.00 58 1015.8
20260902142538 84 0.0 2.0 0.00 0.00 0.00 58 1015.7
20260902142037 84 0.0 2.0 0.00 0.00 0.00 57 1015.6
20260902141017 84 0.0 0.0 0.00 0.00 0.00 57 1015.5
20260902140017 83 0.0 1.0 0.00 0.00 0.00 57 1015.3
20260902135038 82 0.0 0.0 0.00 0.00 0.00 58 1015.2
20260902134017 81 0.0 0.0 0.00 0.00 0.00 60 1015.0
20260902133038 80 0.0 0.0 0.00 0.00 0.00 61 1014.9
20260902132017 80 0.0 0.0 0.00 0.00 0.00 61 1014.8
20260902131037 80 0.0 0.0 0.00 0.00 0.00 62 1014.7
20260902130017 80 0.0 0.0 0.00 0.00 0.00 61 1014.6
20260902125017 80 0.0 0.0 0.00 0.00 0.00 62 1014.6
20260902124017 80 0.0 0.0 0.00 0.00 0.00 62 1014.5
20260902123017 80 0.0 0.0 0.00 0.00 0.00 62 1014.5
20260902122017 80 0.0 0.0 0.00 0.00 0.00 63 1014.5
20260902121017 80 0.0 0.0 0.00 0.00 0.00 61 1014.4
20260902120017 80 0.0 0.0 0.00 0.00 0.00 61 1014.6
20260902115017 80 0.0 0.0 0.00 0.00 0.00 60 1014.5
20260902114017 80 0.0 1.0 0.00 0.00 0.00 61 1014.6
20260902113017 80 0.0 0.0 0.00 0.00 0.00 60 1014.6
20260902112017 80 0.0 0.0 0.00 0.00 0.00 60 1014.5
20260902111016 81 0.0 0.0 0.00 0.00 0.00 61 1014.5
20260902110017 81 0.0 0.0 0.00 0.00 0.00 61 1014.6
20260902105017 81 0.0 0.0 0.00 0.00 0.00 60 1014.7
20260902104016 81 0.0 0.0 0.00 0.00 0.00 59 1014.8
20260902103018 82 0.0 0.0 0.00 0.00 0.00 59 1014.7
20260902102017 82 0.0 0.0 0.00 0.00 0.00 58 1014.6
20260902101057 82 0.0 0.0 0.00 0.00 0.00 58 1014.7
20260902100017 83 0.0 0.0 0.00 0.00 0.00 56 1014.6
20260902095016 83 0.0 1.0 0.00 0.00 0.00 56 1014.6
20260902094017 83 0.0 2.0 0.00 0.00 0.00 55 1014.6
20260902093017 84 0.0 1.0 0.00 0.00 0.00 54 1014.6
20260902092016 84 0.0 0.0 0.00 0.00 0.00 54 1014.7
20260902091017 85 0.0 3.0 0.00 0.00 0.00 53 1014.9
20260902090016 85 0.0 3.0 0.00 0.00 0.00 53 1014.7
20260902085017 85 0 1.0 3.0 0.00 0.00 0.00 52 1014.7
20260902084017 86 0 1.0 3.0 0.00 0.00 0.00 51 1014.8
20260902083036 86 0 2.0 3.0 0.00 0.00 0.00 51 1014.7
20260902082016 86 0 1.0 4.0 0.00 0.00 0.00 52 1014.7
20260902081016 85 0 2.0 4.0 0.00 0.00 0.00 53 1014.8
20260902080017 84 0.0 2.0 0.00 0.00 0.00 54 1014.6
20260902075016 84 0.0 0.0 0.00 0.00 0.00 53 1014.5
20260902074016 84 0.0 0.0 0.00 0.00 0.00 53 1014.4
20260902073016 84 0.0 0.0 0.00 0.00 0.00 51 1014.4
20260902072036 85 0.0 0.0 0.00 0.00 0.00 50 1014.4
20260902071016 85 0.0 0.0 0.00 0.00 0.00 50 1014.4
20260902070016 85 0.0 0.0 0.00 0.00 0.00 50 1014.3
20260902065016 85 0.0 0.0 0.00 0.00 0.00 50 1014.3
20260902064035 86 0.0 1.0 0.00 0.00 0.00 49 1014.5
20260902063015 86 0 1.0 2.0 0.00 0.00 0.00 46 1014.4
20260902062016 86 0.0 0.0 0.00 0.00 0.00 44 1014.2
20260902061015 87 0.0 1.0 0.00 0.00 0.00 44 1014.4
20260902060015 87 0.0 0.0 0.00 0.00 0.00 44 1014.2
20260902055015 87 0.0 2.0 0.00 0.00 0.00 44 1014.2
20260902054015 87 0.0 0.0 0.00 0.00 0.00 44 1014.2
20260902053015 87 0.0 0.0 0.00 0.00 0.00 44 1014.2
20260902052015 87 0.0 1.0 0.00 0.00 0.00 44 1014.2
20260902051018 87 0.0 0.0 0.00 0.00 0.00 44 1014.1
20260902050037 87 0.0 1.0 0.00 0.00 0.00 44 1014.2
20260902045017 88 0.0 1.0 0.00 0.00 0.00 44 1014.1
20260902044037 87 0.0 1.0 0.00 0.00 0.00 44 1014.1
20260902043037 87 0.0 1.0 0.00 0.00 0.00 45 1014.0
20260902042037 87 0.0 1.0 0.00 0.00 0.00 45 1014.0
20260902041017 88 0.0 0.0 0.00 0.00 0.00 45 1013.8
20260902040017 88 0.0 1.0 0.00 0.00 0.00 45 1013.7
20260902035017 88 0.0 0.0 0.00 0.00 0.00 44 1013.6
20260902034017 88 0.0 1.0 0.00 0.00 0.00 42 1013.3
20260902033017 88 0.0 0.0 0.00 0.00 0.00 44 1013.2
20260902032017 89 0.0 0.0 0.00 0.00 0.00 43 1013.1
20260902031018 89 0.0 0.0 0.00 0.00 0.00 41 1012.8
20260902030057 89 0.0 0.0 0.00 0.00 0.00 40 1012.7
20260902025017 90 0.0 0.0 0.00 0.00 0.00 41 1012.5
20260902024017 90 0.0 0.0 0.00 0.00 0.00 40 1012.5
20260902023017 90 0.0 0.0 0.00 0.00 0.00 40 1012.5
20260902022017 91 0.0 1.0 0.00 0.00 0.00 40 1012.2
20260902021017 91 0.0 1.0 0.00 0.00 0.00 39 1012.3
20260902020038 91 0 1.0 4.0 0.00 0.00 0.00 39 1012.2
20260902015017 91 0.0 2.0 0.00 0.00 0.00 38 1012.0
20260902014017 92 0.0 2.0 0.00 0.00 0.00 38 1011.9
20260902013017 92 0 2.0 4.0 0.00 0.00 0.00 38 1012.0
20260902012017 92 0 1.0 3.0 0.00 0.00 0.00 38 1012.1
20260902011017 93 0 1.0 4.0 0.00 0.00 0.00 37 1012.1
20260902010037 93 0 1.0 3.0 0.00 0.00 0.00 38 1012.2
20260902005017 93 0.0 2.0 0.00 0.00 0.00 38 1012.4
20260902004017 93 0 1.0 3.0 0.00 0.00 0.00 38 1012.5
20260902003017 94 0.0 2.0 0.00 0.00 0.00 37 1012.6
20260902002016 94 0 2.0 6.0 0.00 0.00 0.00 36 1012.6
20260902001016 94 0.0 1.0 0.00 0.00 0.00 37 1012.7
20260902000016 94 0 1.0 4.0 0.00 0.00 0.00 37 1012.7
20260901235037 95 0 3.0 6.0 0.00 0.00 0.00 37 1012.7
20260901234017 95 0 2.0 5.0 0.00 0.00 0.00 37 1012.8
20260901233036 96 0 2.0 4.0 0.00 0.00 0.00 37 1013.0
20260901232017 95 0 2.0 5.0 0.00 0.00 0.00 37 1012.9
20260901231016 96 0 2.0 6.0 0.00 0.00 0.00 36 1013.2
20260901230016 96 0 2.0 4.0 0.00 0.00 0.00 36 1013.3
20260901225017 96 0 3.0 8.0 0.00 0.00 0.00 36 1013.2
20260901224016 97 0 2.0 5.0 0.00 0.00 0.00 36 1013.4
20260901223016 97 0 1.0 3.0 0.00 0.00 0.00 35 1013.4
20260901222016 96 0 2.0 5.0 0.00 0.00 0.00 37 1013.7
20260901221017 96 0 1.0 3.0 0.00 0.00 0.00 37 1013.7
20260901220036 95 0 1.0 3.0 0.00 0.00 0.00 38 1013.7
20260901215036 95 0 4.0 10.0 0.00 0.00 0.00 39 1014.0
20260901214016 94 0 2.0 5.0 0.00 0.00 0.00 40 1014.0
20260901213016 94 0 2.0 6.0 0.00 0.00 0.00 40 1014.2
20260901212137 94 0 4.0 8.0 0.00 0.00 0.00 39 1014.4